CZ-4 DEB, 26661

Orbit data source: Space-Track

CZ-4 DEB, 26661 is space debris in SSO originally from a launch on Thu, 14 Oct 1999 UTC launched from the Taiyaun Space Center, China (TSC). Debris objects in space refer to the collection of defunct objects orbiting the Earth. Examples of debris include non-operational satellites, rocket bodies, and fragments generated from explosions, collisions, or faulty payload assembly.

Loading next visibility...
Identifier
26661, 1999-057LT
Orbit
SSO
Country
Flag of CNCN / PRC
Related business
Manufacturer
Unknown
Mission
Spacecraft
Bus & Motor
Unknown
Mass
Unknown
Launch date (UTC)
1999-10-14 (26 years ago)
Launch vehicle
Unknown
Launch site
Taiyaun Space Center, China (TSC)
Object type
Payload
Rocket body
Debris
Shape & HBR
Unknown shape, 0.1 m
Radar Cross Section
Small (<0.1 m²)

Expand to show TLE details & history
Last TLE update: 1 day ago

TLE from 1 day ago
0 CZ-4 DEB
1 26661U 99057LT  26036.22623581  .00200912  00000-0  60448-2 0  9995
2 26661  98.1746 134.5218 0018730 246.9395 143.4055 15.33377703362348
Epoch: 2026-02-05T05:25Z
TLE epoch observation values (Epoch: 2026-02-05T05:25:46.773Z)
Latitude
30.18586°
Longitude
-87.0712°
Altitude
479.957 km
Speed
7.623 km/s
True Right ascension
08h 39m 01s
True Declination
30° 01' 50"
Sunlit
Object was in full shadow at epoch
Visualization orbit readout
Latitude
Unknown
Longitude
Unknown
Altitude
Unknown
Speed
Unknown
Apparent Right ascension
Unknown
Apparent Declination
Unknown
Sunlit
N/A
Visualization observer readout
Local Sidereal Time
07:43:51
Azimuth
Unknown
Elevation
Unknown
Doppler factor
Unknown
Orbital elements
Apogee altitude
475.539 km
Perigee altitude
449.913 km
Semi-major axis
6,840.863 km
Eccentricity
0.00187
Inclination
98.1746°
RAAN
134.5218°
Arg. of periapsis
246.9395°
True anomaly
143.53321°
Mean anomaly
143.4055°
Eccentric anomaly
143.46938°
Mean motion
3.83598 °/min
Orbital period
93.85 mins
BSTAR
0.0060448
Loading maneuver chart data...
Computing Atmospheric mass density...
Loading historical data...
Loading historical data...
Loading historical data...
Loading historical data...
Loading historical data...
Loading historical data...
Loading historical data...

Documentation

Showing up to 5 results
|